Location: Dumpton Point
(51.3500°N, 1.4433°E)
Time: 14:58:07
(UTC+00:00)

S-56A Canister/Altair - All Passes

Search period start: 07 October 2022 00:00
Search period end: 17 October 2022 00:00
Orbit: 637 x 2496 km, 38.9° (Epoch: 06 October)

Date Brightness Start Highest point End Pass type
(mag) Time Alt. Az. Time Alt. Az. Time Alt. Az.
07 Oct - 01:14:26 10° WSW 01:25:33 39° S 01:33:25 10° ESE visible
07 Oct - 03:20:14 10° WSW 03:29:13 33° SSW 03:35:35 10° SE visible
07 Oct - 05:27:40 10° WSW 05:31:35 14° SW 05:34:56 10° S visible
07 Oct - 20:41:02 10° SSE 20:44:35 11° SE 20:47:58 10° ESE night (unlit)
07 Oct - 22:37:22 10° SSW 22:48:18 28° SSE 22:57:05 10° E night (unlit)
08 Oct - 00:40:55 10° SW 00:52:35 40° S 01:00:59 10° ESE visible
08 Oct - 02:46:37 10° WSW 02:56:28 36° SSW 03:03:23 10° SE visible
08 Oct - 04:53:40 10° WSW 04:59:06 18° SW 05:03:29 10° S visible
08 Oct - 22:04:18 10° SSW 22:15:13 27° SSE 22:24:14 10° E night (unlit)
09 Oct - 00:07:25 10° SW 00:19:33 40° S 00:28:28 10° ESE visible
09 Oct - 02:12:59 10° WSW 02:23:39 39° SSW 02:31:08 10° SE visible
09 Oct - 04:19:49 10° W 04:26:34 21° SW 04:31:47 10° S visible
09 Oct - 21:31:20 10° SSW 21:42:06 25° SSE 21:51:17 10° E visible
09 Oct - 23:33:57 10° SW 23:46:27 40° SSE 23:55:53 10° ESE visible
10 Oct - 01:39:20 10° WSW 01:50:46 41° S 01:58:48 10° ESE visible
10 Oct - 03:46:01 10° W 03:53:58 25° SSW 03:59:55 10° SSE visible
10 Oct - 20:58:31 10° S 21:08:59 24° SE 21:18:12 10° E visible
10 Oct - 23:00:32 10° SW 23:13:19 40° SSE 23:23:14 10° ESE visible
11 Oct - 01:05:43 10° WSW 01:17:47 43° S 01:26:25 10° ESE visible
11 Oct - 03:12:15 10° W 03:21:17 28° SSW 03:27:56 10° SSE visible
11 Oct - 20:25:49 10° S 20:35:51 22° SE 20:44:58 10° E visible
11 Oct - 22:27:12 10° SW 22:40:07 39° SSE 22:50:29 10° E visible
12 Oct - 00:32:05 10° WSW 00:44:45 45° S 00:53:57 10° ESE visible
12 Oct - 02:38:30 10° W 02:48:32 32° SSW 02:55:50 10° SSE visible
12 Oct - 04:48:03 10° WSW 04:50:41 11° SW 04:53:05 10° SSW visible
12 Oct - 19:53:19 10° S 20:02:45 20° SE 20:11:33 10° E visible
12 Oct - 21:53:56 10° SW 22:06:54 38° SSE 22:17:40 10° E visible
12 Oct - 23:58:30 10° WSW 00:11:37 46° S 00:21:25 10° ESE night (unlit)
13 Oct - 02:04:45 10° W 02:15:41 35° SSW 02:23:39 10° SE visible
13 Oct - 04:13:07 10° WSW 04:18:09 15° SW 04:22:25 10° SSW visible
13 Oct - 19:21:01 10° S 19:29:39 18° SE 19:37:56 10° E visible
13 Oct - 21:20:46 10° SW 21:33:38 36° SSE 21:44:45 10° E visible
13 Oct - 23:24:56 10° WSW 23:38:26 46° S 23:48:49 10° ESE visible
14 Oct - 01:31:01 10° W 01:42:46 38° SSW 01:51:22 10° SE visible
14 Oct - 03:38:48 10° W 03:45:33 18° SW 03:51:02 10° S visible
14 Oct - 18:49:00 10° SSE 18:56:35 16° SE 19:04:03 10° ESE visible
14 Oct - 20:47:42 10° SSW 21:00:23 35° SSE 21:11:44 10° E visible
14 Oct - 22:51:27 10° WSW 23:05:11 47° S 23:16:07 10° ESE visible
15 Oct - 00:57:18 10° W 01:09:46 41° SSW 01:19:00 10° SE visible
15 Oct - 03:04:42 10° W 03:12:53 22° SW 03:19:21 10° S visible
15 Oct - 18:17:23 10° SSE 18:23:35 14° SE 18:29:46 10° ESE visible
15 Oct - 20:14:45 10° SSW 20:27:07 33° SSE 20:38:35 10° E visible
15 Oct - 22:18:02 10° WSW 22:31:54 47° S 22:43:21 10° ESE visible
16 Oct - 00:23:38 10° W 00:36:41 44° SSW 00:46:32 10° SE visible
16 Oct - 02:30:43 10° W 02:40:09 25° SW 02:47:28 10° SSE visible
16 Oct - 17:46:35 10° SE 17:50:36 12° SE 17:54:40 10° ESE visible
16 Oct - 19:41:57 10° SSW 19:53:52 31° SSE 20:05:21 10° E visible
16 Oct - 21:44:41 10° SW 21:58:34 46° S 22:10:29 10° ESE visible
